| time (UTC) | temp C | wind direction | speed KPH | gust KPH | rain 1hr cm | rain 24hr cm | rain mn cm | humidity % | barometer mb |
| 20260505014026 | 15 | 288 | 0.0 | 4.8 | 0.00 | 0.00 | 0.00 | 51 | 1009.3 |
| 20260505013526 | 15 | 279 | 0.0 | 11.3 | 0.00 | 0.00 | 0.00 | 51 | 1009.3 |
| 20260505013046 | 15 | 292 | 1.6 | 11.3 | 0.00 | 0.00 | 0.00 | 50 | 1009.2 |
| 20260505012527 | 15 | 195 | 1.6 | 11.3 | 0.00 | 0.00 | 0.00 | 50 | 1009.1 |
| 20260505012023 | 16 | 284 | 0.0 | 11.3 | 0.00 | 0.00 | 0.00 | 50 | 1009.0 |
| 20260505011545 | 16 | 141 | 1.6 | 11.3 | 0.00 | 0.00 | 0.00 | 49 | 1008.9 |
| 20260505011027 | 16 | 261 | 1.6 | 11.3 | 0.00 | 0.00 | 0.00 | 50 | 1008.8 |
| 20260505010525 | 16 | 314 | 1.6 | 11.3 | 0.00 | 0.00 | 0.00 | 49 | 1008.8 |
| 20260505010051 | 16 | 251 | 0.0 | 12.9 | 0.00 | 0.00 | 0.00 | 49 | 1008.7 |
| 20260505005529 | 16 | 139 | 1.6 | 12.9 | 0.00 | 0.00 | 0.00 | 49 | 1008.6 |
| 20260505005026 | 16 | 271 | 1.6 | 11.3 | 0.00 | 0.00 | 0.00 | 48 | 1008.4 |
| 20260505004547 | 16 | 279 | 1.6 | 11.3 | 0.00 | 0.00 | 0.00 | 48 | 1008.2 |
| 20260505004026 | 16 | 154 | 0.0 | 11.3 | 0.00 | 0.00 | 0.00 | 48 | 1008.0 |
| 20260505003523 | 16 | 250 | 1.6 | 16.1 | 0.00 | 0.00 | 0.00 | 46 | 1007.9 |
| 20260505003053 | 17 | 169 | 1.6 | 16.1 | 0.00 | 0.00 | 0.00 | 47 | 1007.7 |
| 20260505002523 | 17 | 89 | 1.6 | 11.3 | 0.00 | 0.00 | 0.00 | 46 | 1007.6 |
| 20260505002023 | 17 | 79 | 1.6 | 11.3 | 0.00 | 0.00 | 0.00 | 45 | 1007.5 |
| 20260505001537 | 17 | 297 | 3.2 | 11.3 | 0.00 | 0.00 | 0.00 | 45 | 1007.4 |
| 20260505001027 | 17 | 288 | 3.2 | 14.5 | 0.00 | 0.00 | 0.00 | 45 | 1007.4 |
| 20260505000523 | 17 | 141 | 1.6 | 14.5 | 0.00 | 0.00 | 0.00 | 44 | 1007.2 |
| 20260505000046 | 17 | 281 | 3.2 | 14.5 | 0.00 | 0.00 | 0.00 | 44 | 1007.2 |
| 20260504235523 | 17 | 108 | 1.6 | 12.9 | 0.00 | 0.00 | 0.00 | 44 | 1007.1 |
| 20260504235027 | 18 | 250 | 1.6 | 12.9 | 0.00 | 0.00 | 0.00 | 43 | 1007.0 |
| 20260504234543 | 18 | 162 | 1.6 | 9.7 | 0.00 | 0.00 | 0.00 | 42 | 1006.9 |
| 20260504234026 | 18 | 273 | 3.2 | 8.0 | 0.00 | 0.00 | 0.00 | 41 | 1006.7 |
| 20260504233524 | 18 | 212 | 3.2 | 12.9 | 0.00 | 0.00 | 0.00 | 41 | 1006.6 |
| 20260504233038 | 18 | 269 | 1.6 | 12.9 | 0.00 | 0.00 | 0.00 | 39 | 1006.6 |
| 20260504232527 | 19 | 269 | 3.2 | 12.9 | 0.00 | 0.00 | 0.00 | 38 | 1006.5 |
| 20260504232025 | 19 | 0 | 3.2 | 9.7 | 0.00 | 0.00 | 0.00 | 37 | 1006.4 |
| 20260504231537 | 19 | 197 | 1.6 | 6.4 | 0.00 | 0.00 | 0.00 | 35 | 1006.2 |
| 20260504231025 | 20 | 99 | 0.0 | 6.4 | 0.00 | 0.00 | 0.00 | 35 | 1006.2 |
| 20260504230524 | 20 | 210 | 1.6 | 9.7 | 0.00 | 0.00 | 0.00 | 35 | 1006.1 |
| 20260504230038 | 20 | 267 | 1.6 | 9.7 | 0.00 | 0.00 | 0.00 | 35 | 1006.1 |
| 20260504225523 | 20 | 259 | 1.6 | 6.4 | 0.00 | 0.00 | 0.00 | 34 | 1006.0 |
| 20260504225024 | 20 | 0 | 0.0 | 8.0 | 0.00 | 0.00 | 0.00 | 34 | 1005.9 |
| 20260504224538 | 20 | 79 | 1.6 | 8.0 | 0.00 | 0.00 | 0.00 | 33 | 1005.9 |
| 20260504224027 | 20 | 259 | 1.6 | 8.0 | 0.00 | 0.00 | 0.00 | 33 | 1005.8 |
| 20260504223527 | 20 | 0 | 1.6 | 8.0 | 0.00 | 0.00 | 0.00 | 33 | 1005.8 |
| 20260504223057 | 21 | 0 | 1.6 | 11.3 | 0.00 | 0.00 | 0.00 | 34 | 1005.8 |
| 20260504222527 | 21 | 0 | 1.6 | 12.9 | 0.00 | 0.00 | 0.00 | 33 | 1005.8 |
| 20260504222023 | 21 | 195 | 3.2 | 12.9 | 0.00 | 0.00 | 0.00 | 32 | 1005.8 |
| 20260504221537 | 21 | 135 | 3.2 | 9.7 | 0.00 | 0.00 | 0.00 | 33 | 1005.9 |
| 20260504221027 | 21 | 142 | 1.6 | 9.7 | 0.00 | 0.00 | 0.00 | 33 | 1005.8 |
| 20260504220525 | 21 | 215 | 1.6 | 11.3 | 0.00 | 0.00 | 0.00 | 33 | 1005.8 |
| 20260504220039 | 21 | 153 | 1.6 | 11.3 | 0.00 | 0.00 | 0.00 | 33 | 1005.8 |
| 20260504215524 | 21 | 232 | 3.2 | 9.7 | 0.00 | 0.00 | 0.00 | 32 | 1005.9 |
| 20260504215026 | 21 | 173 | 1.6 | 12.9 | 0.00 | 0.00 | 0.00 | 33 | 1005.9 |
| 20260504214537 | 21 | 259 | 3.2 | 12.9 | 0.00 | 0.00 | 0.00 | 32 | 1005.9 |
| 20260504214027 | 21 | 277 | 3.2 | 8.0 | 0.00 | 0.00 | 0.00 | 32 | 1005.8 |
| 20260504213523 | 21 | 350 | 1.6 | 9.7 | 0.00 | 0.00 | 0.00 | 32 | 1005.8 |
| 20260504213043 | 21 | 94 | 3.2 | 12.9 | 0.00 | 0.00 | 0.00 | 32 | 1005.8 |
| 20260504212526 | 21 | 286 | 3.2 | 12.9 | 0.00 | 0.00 | 0.00 | 31 | 1005.8 |
| 20260504212024 | 21 | 20 | 1.6 | 9.7 | 0.00 | 0.00 | 0.00 | 32 | 1005.8 |
| 20260504211613 | 21 | 285 | 3.2 | 9.7 | 0.00 | 0.00 | 0.00 | 31 | 1005.9 |
| 20260504211025 | 21 | 274 | 3.2 | 12.9 | 0.00 | 0.00 | 0.00 | 31 | 1005.8 |
| 20260504210529 | 21 | 160 | 1.6 | 12.9 | 0.00 | 0.00 | 0.00 | 31 | 1005.7 |
| 20260504210046 | 21 | 290 | 3.2 | 12.9 | 0.00 | 0.00 | 0.00 | 31 | 1005.8 |
| 20260504205525 | 21 | 228 | 0.0 | 8.0 | 0.00 | 0.00 | 0.00 | 31 | 1005.8 |
| 20260504205023 | 22 | 181 | 1.6 | 11.3 | 0.00 | 0.00 | 0.00 | 29 | 1005.8 |
| 20260504204538 | 22 | 203 | 3.2 | 11.3 | 0.00 | 0.00 | 0.00 | 32 | 1005.8 |
| 20260504204023 | 22 | 304 | 3.2 | 9.7 | 0.00 | 0.00 | 0.00 | 29 | 1005.8 |
| 20260504203524 | 22 | 181 | 1.6 | 9.7 | 0.00 | 0.00 | 0.00 | 30 | 1005.7 |
| 20260504203037 | 22 | 287 | 1.6 | 11.3 | 0.00 | 0.00 | 0.00 | 30 | 1005.8 |
| 20260504202527 | 22 | 136 | 4.8 | 11.3 | 0.00 | 0.00 | 0.00 | 30 | 1005.8 |
| 20260504202024 | 22 | 287 | 3.2 | 9.7 | 0.00 | 0.00 | 0.00 | 29 | 1005.7 |
| 20260504201534 | 22 | 143 | 1.6 | 11.3 | 0.00 | 0.00 | 0.00 | 28 | 1005.7 |
| 20260504201026 | 22 | 93 | 1.6 | 12.9 | 0.00 | 0.00 | 0.00 | 30 | 1005.7 |
| 20260504200527 | 22 | 254 | 3.2 | 14.5 | 0.00 | 0.00 | 0.00 | 29 | 1005.7 |
| 20260504200044 | 22 | 158 | 4.8 | 14.5 | 0.00 | 0.00 | 0.00 | 29 | 1005.8 |
| 20260504195526 | 22 | 108 | 3.2 | 11.3 | 0.00 | 0.00 | 0.00 | 29 | 1005.8 |
| 20260504195027 | 22 | 295 | 3.2 | 12.9 | 0.00 | 0.00 | 0.00 | 28 | 1005.8 |
| 20260504194548 | 22 | 288 | 3.2 | 12.9 | 0.00 | 0.00 | 0.00 | 27 | 1005.9 |
| 20260504194024 | 22 | 77 | 4.8 | 12.9 | 0.00 | 0.00 | 0.00 | 27 | 1005.9 |
| 20260504193526 | 22 | 195 | 3.2 | 11.3 | 0.00 | 0.00 | 0.00 | 29 | 1005.8 |
| 20260504193038 | 22 | 257 | 4.8 | 17.7 | 0.00 | 0.00 | 0.00 | 28 | 1005.8 |
| 20260504192526 | 22 | 140 | 3.2 | 29.0 | 0.00 | 0.00 | 0.00 | 28 | 1005.8 |
| 20260504192024 | 22 | 291 | 6.4 | 29.0 | 0.00 | 0.00 | 0.00 | 27 | 1005.9 |
| 20260504191542 | 22 | 158 | 6.4 | 20.9 | 0.00 | 0.00 | 0.00 | 28 | 1005.7 |
| 20260504191025 | 22 | 150 | 1.6 | 12.9 | 0.00 | 0.00 | 0.00 | 29 | 1005.8 |
| 20260504190526 | 22 | 59 | 3.2 | 19.3 | 0.00 | 0.00 | 0.00 | 29 | 1005.8 |
| 20260504190044 | 22 | 101 | 6.4 | 19.3 | 0.00 | 0.00 | 0.00 | 28 | 1005.9 |
| 20260504185524 | 22 | 121 | 4.8 | 19.3 | 0.00 | 0.00 | 0.00 | 28 | 1006.3 |
| 20260504185024 | 22 | 152 | 4.8 | 24.1 | 0.00 | 0.00 | 0.00 | 29 | 1006.2 |
| 20260504184548 | 22 | 160 | 6.4 | 24.1 | 0.00 | 0.00 | 0.00 | 28 | 1006.3 |
| 20260504184026 | 22 | 142 | 3.2 | 14.5 | 0.00 | 0.00 | 0.00 | 28 | 1006.4 |
| 20260504183524 | 22 | 115 | 3.2 | 12.9 | 0.00 | 0.00 | 0.00 | 31 | 1006.4 |
| 20260504183040 | 22 | 186 | 3.2 | 12.9 | 0.00 | 0.00 | 0.00 | 31 | 1006.5 |
| 20260504182526 | 22 | 233 | 4.8 | 12.9 | 0.00 | 0.00 | 0.00 | 32 | 1006.6 |
| 20260504182027 | 22 | 160 | 3.2 | 24.1 | 0.00 | 0.00 | 0.00 | 31 | 1006.6 |
| 20260504181538 | 22 | 293 | 4.8 | 24.1 | 0.00 | 0.00 | 0.00 | 27 | 1006.4 |
| 20260504181026 | 21 | 287 | 4.8 | 24.1 | 0.00 | 0.00 | 0.00 | 28 | 1006.4 |
| 20260504180525 | 21 | 73 | 4.8 | 27.4 | 0.00 | 0.00 | 0.00 | 29 | 1006.4 |
| 20260504180039 | 21 | 249 | 6.4 | 27.4 | 0.00 | 0.00 | 0.00 | 29 | 1006.6 |
| 20260504175528 | 22 | 280 | 4.8 | 17.7 | 0.00 | 0.00 | 0.00 | 30 | 1006.6 |
| 20260504175029 | 22 | 110 | 3.2 | 20.9 | 0.00 | 0.00 | 0.00 | 29 | 1006.6 |
| 20260504174540 | 22 | 79 | 3.2 | 20.9 | 0.00 | 0.00 | 0.00 | 29 | 1007.0 |
| 20260504174024 | 22 | 201 | 4.8 | 17.7 | 0.00 | 0.00 | 0.00 | 28 | 1006.8 |
| 20260504173526 | 22 | 255 | 4.8 | 17.7 | 0.00 | 0.00 | 0.00 | 30 | 1006.8 |
| 20260504173042 | 22 | 80 | 1.6 | 14.5 | 0.00 | 0.00 | 0.00 | 33 | 1006.8 |
| 20260504172525 | 21 | 315 | 4.8 | 14.5 | 0.00 | 0.00 | 0.00 | 31 | 1006.9 |
| 20260504172025 | 21 | 188 | 6.4 | 20.9 | 0.00 | 0.00 | 0.00 | 31 | 1006.9 |
| 20260504171540 | 21 | 170 | 4.8 | 20.9 | 0.00 | 0.00 | 0.00 | 30 | 1006.9 |
| 20260504171025 | 21 | 166 | 6.4 | 20.9 | 0.00 | 0.00 | 0.00 | 31 | 1007.0 |
| 20260504170524 | 21 | 238 | 4.8 | 19.3 | 0.00 | 0.00 | 0.00 | 33 | 1007.0 |
| 20260504151029 | 20 | 290 | 4.8 | 16.1 | 0.00 | 0.00 | 0.00 | 33 | 1008.5 |
| 20260504150526 | 20 | 62 | 4.8 | 27.4 | 0.00 | 0.00 | 0.00 | 34 | 1008.4 |
| 20260504141024 | 17 | 237 | 4.8 | 19.3 | 0.00 | 0.00 | 0.00 | 38 | 1008.8 |
| 20260504140527 | 17 | 53 | 4.8 | 19.3 | 0.00 | 0.00 | 0.00 | 37 | 1008.9 |
| 20260504130528 | 15 | 209 | 3.2 | 9.7 | 0.00 | 0.00 | 0.00 | 42 | 1009.6 |
| 20260504110528 | 9 | 174 | 0.0 | 1.6 | 0.00 | 0.05 | 0.00 | 60 | 1009.7 |
| 20260504100527 | 6 | 0 | 0.0 | 0.0 | 0.00 | 0.05 | 0.00 | 65 | 1009.7 |
| 20260504081539 | 6 | 0 | 0.0 | 1.6 | 0.00 | 0.05 | 0.00 | 66 | 1009.8 |
| 20260504081026 | 6 | 0 | 0.0 | 1.6 | 0.00 | 0.05 | 0.00 | 65 | 1009.8 |
| 20260504080528 | 6 | 0 | 0.0 | 3.2 | 0.00 | 0.05 | 0.00 | 65 | 1009.8 |
| 20260504050525 | 2 | 205 | 0.0 | 3.2 | 0.00 | 0.05 | 0.00 | 77 | 1009.7 |
| 20260504045524 | 1 | 0 | 0.0 | 1.6 | 0.00 | 0.05 | 0.00 | 79 | 1009.6 |
| 20260504045024 | 1 | 0 | 0.0 | 1.6 | 0.00 | 0.05 | 0.00 | 80 | 1009.6 |
| 20260504044537 | 1 | 0 | 0.0 | 0.0 | 0.00 | 0.05 | 0.00 | 80 | 1009.7 |
| 20260504044024 | 1 | 0 | 0.0 | 0.0 | 0.00 | 0.05 | 0.00 | 80 | 1009.6 |
| 20260504043525 | 1 | 0 | 0.0 | 0.0 | 0.00 | 0.05 | 0.00 | 79 | 1009.7 |
| 20260504043044 | 1 | 0 | 0.0 | 1.6 | 0.00 | 0.05 | 0.00 | 78 | 1009.7 |
| 20260504042524 | 2 | 0 | 0.0 | 1.6 | 0.00 | 0.05 | 0.00 | 78 | 1009.6 |
| 20260504042028 | 2 | 0 | 0.0 | 1.6 | 0.00 | 0.05 | 0.00 | 77 | 1009.8 |
| 20260504041541 | 2 | 0 | 0.0 | 1.6 | 0.00 | 0.05 | 0.00 | 76 | 1009.7 |
| 20260504041024 | 2 | 0 | 0.0 | 1.6 | 0.00 | 0.05 | 0.00 | 75 | 1009.7 |
| 20260504040526 | 2 | 0 | 0.0 | 1.6 | 0.00 | 0.05 | 0.00 | 74 | 1009.7 |
| 20260504040042 | 2 | 0 | 0.0 | 1.6 | 0.00 | 0.05 | 0.00 | 74 | 1009.6 |
| 20260504035525 | 3 | 0 | 0.0 | 1.6 | 0.00 | 0.05 | 0.05 | 74 | 1009.6 |
| 20260504035024 | 3 | 0 | 0.0 | 1.6 | 0.00 | 0.05 | 0.05 | 73 | 1009.6 |
| 20260504034537 | 2 | 240 | 0.0 | 1.6 | 0.00 | 0.05 | 0.05 | 74 | 1009.5 |
| 20260504034030 | 2 | 0 | 0.0 | 0.0 | 0.00 | 0.05 | 0.05 | 74 | 1009.6 |
| 20260504033524 | 2 | 0 | 0.0 | 0.0 | 0.00 | 0.05 | 0.05 | 74 | 1009.5 |
| 20260504033049 | 2 | 0 | 0.0 | 1.6 | 0.00 | 0.05 | 0.05 | 74 | 1009.5 |
| 20260504032525 | 2 | 0 | 0.0 | 1.6 | 0.00 | 0.05 | 0.05 | 74 | 1009.5 |
| 20260504032027 | 2 | 240 | 0.0 | 0.0 | 0.00 | 0.05 | 0.05 | 75 | 1009.5 |
| 20260504031554 | 2 | 0 | 0.0 | 0.0 | 0.00 | 0.05 | 0.05 | 76 | 1009.5 |
| 20260504031026 | 2 | 0 | 0.0 | 1.6 | 0.00 | 0.05 | 0.05 | 75 | 1009.5 |
| 20260504030527 | 3 | 0 | 0.0 | 1.6 | 0.00 | 0.05 | 0.05 | 73 | 1009.6 |
| 20260504030043 | 3 | 0 | 0.0 | 1.6 | 0.00 | 0.05 | 0.05 | 72 | 1009.5 |
| 20260504025527 | 3 | 240 | 0.0 | 1.6 | 0.00 | 0.05 | 0.05 | 73 | 1009.5 |
| 20260504025026 | 3 | 0 | 0.0 | 0.0 | 0.00 | 0.05 | 0.05 | 73 | 1009.5 |
| 20260504024546 | 3 | 0 | 0.0 | 0.0 | 0.00 | 0.05 | 0.05 | 73 | 1009.4 |
| 20260504024027 | 3 | 0 | 0.0 | 0.0 | 0.00 | 0.05 | 0.05 | 73 | 1009.4 |
| 20260504023524 | 3 | 0 | 0.0 | 0.0 | 0.00 | 0.05 | 0.05 | 72 | 1009.4 |
| 20260504023046 | 3 | 0 | 0.0 | 0.0 | 0.00 | 0.05 | 0.05 | 72 | 1009.5 |
| 20260504022531 | 3 | 0 | 0.0 | 0.0 | 0.00 | 0.05 | 0.05 | 71 | 1009.5 |
| 20260504022027 | 3 | 0 | 0.0 | 0.0 | 0.00 | 0.05 | 0.05 | 71 | 1009.4 |
| 20260504021542 | 3 | 0 | 0.0 | 0.0 | 0.00 | 0.05 | 0.05 | 72 | 1009.4 |
| 20260504021024 | 3 | 0 | 0.0 | 0.0 | 0.00 | 0.05 | 0.05 | 71 | 1009.4 |
| 20260504020523 | 3 | 0 | 0.0 | 0.0 | 0.00 | 0.05 | 0.05 | 71 | 1009.4 |
| 20260504020040 | 3 | 0 | 0.0 | 0.0 | 0.00 | 0.05 | 0.05 | 71 | 1009.3 |
| 20260504015527 | 3 | 0 | 0.0 | 0.0 | 0.00 | 0.05 | 0.05 | 69 | 1009.3 |
| 20260504015025 | 4 | 0 | 0.0 | 0.0 | 0.00 | 0.05 | 0.05 | 68 | 1009.3 |
| 20260504014543 | 4 | 0 | 0.0 | 0.0 | 0.00 | 0.05 | 0.05 | 68 | 1009.3 |